Regional Weather Roundup
Issued by NWS

Home | Current Version | Previous Version | Graphics & Text | Print | Product List | Glossary Off
Versions: 1 2 3 4 5 6 7 8 9 10 11 12 13 14 15 16 17 18 19 20 21 22 23 24 25 26 27 28 29 30 31 32 33 34 35 36 37 38 39 40 41 42 43 44 45 46 47 48 49 50

000
ASUS43 KMKX 250211
RWRWI

WISCONSIN REGIONAL WEATHER ROUNDUP
NATIONAL WEATHER SERVICE MILWAUKEE/SULLIVAN WI
900 PM CDT FRI APR 24 2015

NOTE: "FAIR" INDICATES FEW OR NO CLOUDS BELOW 12,000 FEET WITH NO
SIGNIFICANT WEATHER AND/OR OBSTRUCTIONS TO VISIBILITY.

WIZ001-002-006>008-014>016-023>028-250300-
NORTHWEST WISCONSIN

CITY           SKY/WX    TMP DP  RH WIND       PRES   REMARKS
SUPERIOR ARPT  CLOUDY    35  31  84 NE16G22   29.94S WCI  25
ASHLAND        CLOUDY    36  30  79 NE6       29.97R WCI  31
HAYWARD        CLOUDY    41  32  70 E9        29.90S
SIREN          CLOUDY    47  26  43 E7        29.88R
CUMBERLAND     CLOUDY    46  30  53 SE7       29.86R
RICE LAKE      CLOUDY    49  29  45 SE9       29.89R
CHETEK         CLOUDY    49  29  46 E7        29.88R
LADYSMITH      CLOUDY    47  25  42 E8        29.90S
EAU CLAIRE     CLOUDY    46  33  60 SE15      29.87S
MENOMONIE      CLOUDY    46  35  65 E12       29.87R
NEW RICHMOND   CLOUDY    45  36  71 SE8       29.85R
OSCEOLA        CLOUDY    47  37  69 E8        29.87S
$$

WIZ003>005-009-010-017-018-250300-
NORTH CENTRAL WISCONSIN

CITY           SKY/WX    TMP DP  RH WIND       PRES   REMARKS
MANITOWISH WTR CLOUDY    40  31  69 E5        29.93S
ARBOR VITAE    CLOUDY    44  29  56 SE7       29.93S
WOODRUFF       CLOUDY    44  29  56 SE7       29.93S
RHINELANDER    CLOUDY    42  28  57 E10       29.95R
EAGLE RIVER    CLOUDY    42  25  51 CALM      29.94S
LAND O LAKES   CLOUDY    40  32  74 CALM      29.95S
PHILLIPS       CLOUDY    43  27  54 E7        29.90S
TOMAHAWK       CLOUDY    45  28  50 CALM      29.94R
MEDFORD        CLOUDY    47  28  48 SE10      29.91R
MERRILL        CLOUDY    43  31  63 SE12G21   29.95R
$$

WIZ029-030-035-036-043>047-250300-
CENTRAL WISCONSIN

CITY           SKY/WX    TMP DP  RH WIND       PRES   REMARKS
WAUSAU         LGT RAIN  44  31  60 E15G21    29.94R
MOSINEE        MOCLDY    45  30  57 E8        29.95R
MARSHFIELD     CLOUDY    47  27  45 SE15      29.91R
STEVENS POINT  CLOUDY    43  20  40 SE13      29.95R
WAUPACA        CLOUDY    46  19  34 E10       29.97S
WAUTOMA        LGT RAIN  41  39  92 E8        29.96R
WISC RAPIDS    LGT RAIN  43  34  70 SE10      29.95R
CAMP DOUGLAS   CLOUDY    41  41 100 E9        29.91R
$$

WIZ011>013-019>022-031-037>040-048>050-250300-
NORTHEAST WISCONSIN

CITY           SKY/WX    TMP DP  RH WIND       PRES   REMARKS
ANTIGO         CLOUDY    40  25  53 SE10      29.96S WCI  34
SHAWANO        CLOUDY    44  22  42 E8        29.99S
OCONTO         CLOUDY    40  23  50 CALM      30.00S
STURGEON BAY   CLOUDY    37  19  48 E8        30.01F WCI  31
GREEN BAY      CLOUDY    42  20  41 E7        30.00R
MANITOWOC      CLOUDY    39  24  55 CALM      30.00R
APPLETON       CLOUDY    43  18  36 E6        29.99R
CLINTONVILLE   CLOUDY    43  23  45 SE6       29.98R
OSHKOSH        CLOUDY    39  32  76 SE10      29.97R WCI  32
$$

WIZ032>034-041-042-053>061-250300-
SOUTHWEST WISCONSIN

CITY           SKY/WX    TMP DP  RH WIND       PRES   REMARKS
LA CROSSE      LGT RAIN  46  40  79 VRB7      29.87R
SPARTA         CLOUDY    42  38  87 E9        29.90R
VIROQUA        CLOUDY    41  40  95 E14G22    29.85F
BOSCOBEL       CLOUDY    44  38  79 E9        29.88R
PRAIRIE DU CHI CLOUDY    44  37  76 E10G17    29.84R
PLATTEVILLE    CLOUDY    43  39  85 E16       29.85R
$$

WIZ056-057-062-063-064-067-068-250300-
SOUTH CENTRAL WISCONSIN

CITY           SKY/WX    TMP DP  RH WIND       PRES   REMARKS
REEDSBURG      CLOUDY    41  37  86 E7        29.90S
BARABOO/DELLS  CLOUDY    40  36  86 E10G16    29.90F WCI  34
LONE ROCK      CLOUDY    43  38  82 E16       29.89S
MINERAL POINT  CLOUDY    43  37  81 E15       29.85S
MADISON        CLOUDY    40  36  86 E13       29.92F WCI  32
MIDDLETON      CLOUDY    42  37  84 E12       29.90F
WATERTOWN      CLOUDY    38  36  95 E12       29.92F WCI  30
MONROE         CLOUDY    41  37  87 E10       29.87F
JANESVILLE     CLOUDY    43  37  81 E12       29.90S
$$

WIZ051-052-058>065-066-070>072-250300-
SOUTHEAST WISCONSIN

CITY           SKY/WX    TMP DP  RH WIND       PRES   REMARKS
MILWAUKEE      CLOUDY    39  33  79 NE7       29.99R WCI  34
WAUKESHA       CLOUDY    37  34  87 NE7       29.97S WCI  32
MILWAUKEE/TIMM DRIZZLE   39  34  81 CALM      29.99R
RACINE         CLOUDY    39  33  79 NE9       29.97S WCI  33
BURLINGTON     CLOUDY    38  33  81 E12       29.92F WCI  31
KENOSHA        CLOUDY    40  35  83 NE13      29.94R WCI  32
FOND DU LAC    CLOUDY    39  33  79 E8        29.98S WCI  33
SHEBOYGAN      CLOUDY    36  30  79 NE5       30.00R WCI  32
WEST BEND      LGT RAIN  36  32  87 E7        29.98R WCI  30
JUNEAU         CLOUDY    37  34  88 E10       29.97S WCI  30
$$

LSZ147-162-250300-
LAKE SUPERIOR

STATION/POSITION TIME  TEMP    WIND        PRES    WAVE
                       AIR SEA DIR/SP/G            HT/PER
                 (UTC) (F)     (DEG/KT/KT) (MB)    (FT/S)
W MID LAKE BUOY  0150   35 34   80/ 14/ 16 1017.6R   3/ 5
DEVILS ISLAND    0200   36      70/ 14/ 16 1016.4F
PORT WING        0100   40      40/ 15/ 17 1014.2
SAXON HARBOR     0140   38      CALM  /  5 1014.2F
$$

LMZ867-665-643>646-250300-
LAKE MICHIGAN

STATION/POSITION TIME  TEMP    WIND        PRES    WAVE
                       AIR SEA DIR/SP/G            HT/PER
                 (UTC) (F)     (DEG/KT/KT) (MB)    (FT/S)
CHAMBERS ISLAND  0100   38     100/  5/  9 1016.6S
NORTHPORT PIER   0100   37     140/  4/  6 1016.9R
SISTER BAY       0147   37     130/  6/ 10   N/A
KEWAUNEE LAKESHO 0100   38      50/  5/  8 1015.1F
SHEBOYGAN LAKESH 0200   38      90/  4/  5 1016.8R
PORT WASHINGTON  0100   39      50/  6/  7 1016.3
MILWAUKEE LAKESH 0100   39      70/  5/  6   N/A
KENOSHA   LAKESH 0200   42      60/ 15/ 18 1013.9S
$$

TC  - TEMPERATURE IN CELSIUS
VSB - VISIBILITY IN STATUTE MILES
WCI - WIND CHILL INDEX
HX  - HEAT INDEX



USA.gov is the U.S. government's official web portal to all federal, state and local government web resources and services.